[[{"header":{"parameterUnit":"m.s-1","parameterCategory":1,"la1":30.2991,"la2":30.254,"lo1":-89.0895,"lo2":-89.0444,"dy":0.0017,"dx":0.0017,"nx":28,"ny":28,"refTime":"2023-08-17T03:00:00:Z","depth":0,"parameterNumber":2,"parameterNumberName":"U-component_of_WINDS"},"data":[0,0,0,0,0,0,0,0,0,0,0,0,0,0,0,0,0,0,0,0,0,0,0,0,0,0,0,0,0,0,0,0,0,0,0,0,0,0,0,0,0,0,0,0,0,0,0,0,0,0,0,0,0,0,0,0,0,0,3.1155,3.1156,0,3.1221,3.1222,3.1223,3.1219,3.1218,3.1218,3.1217,3.1284,3.1287,3.129,0,0,0,0,0,0,0,0,0,0,0,0,0,3.1027,3.103,3.1155,3.1156,3.1157,3.1221,3.1222,3.1223,3.122,3.1218,3.1217,3.1216,3.1283,3.1287,3.129,0,0,0,0,0,0,0,0,0,0,0,0,0,3.1087,3.103,3.1155,3.1163,3.1164,3.1221,3.1222,3.1223,3.122,3.1218,3.1217,3.1216,3.1282,3.1286,3.129,3.1344,0,0,3.1303,3.1304,0,0,0,0,0,0,0,0,3.1084,3.1092,3.1161,3.1163,3.1164,3.1211,3.1202,3.1264,3.122,3.1199,3.1217,3.1215,3.1261,3.1267,3.1282,3.1347,3.135,3.1303,3.1305,3.1307,3.1308,0,0,0,0,0,0,0,3.1079,3.1089,3.1181,3.1162,3.1164,3.1164,3.117,3.1214,3.1237,3.1201,3.12,3.1208,3.1262,3.1278,3.1284,3.1351,3.1303,3.1306,3.1309,3.131,3.1464,3.1465,0,0,0,0,0,0,3.1074,3.1085,3.1179,3.1183,3.112,3.1167,3.1175,3.1197,3.1237,3.1241,3.1209,3.1208,3.1272,3.1279,3.1286,3.1352,3.1307,3.1311,3.1313,3.1462,3.1464,3.1466,0,0,0,0,0,0,3.1071,3.1082,3.1177,3.1135,3.1147,3.1171,3.1196,3.1199,3.1216,3.1243,3.1248,3.1222,3.1271,3.128,3.133,3.1354,3.1313,3.1316,3.146,3.1463,3.1465,3.1483,0,0,0,0,0,0,3.1067,3.1081,3.1101,3.1135,3.1149,3.1219,3.1198,3.1202,3.1223,3.1222,3.1256,3.1261,3.1271,3.1324,3.1334,3.1359,3.132,3.1458,3.1461,3.1464,3.1481,3.1486,3.1491,0,0,0,0,0,3.1063,3.1104,3.1102,3.1114,3.1174,3.122,3.1228,3.1239,3.1225,3.1246,3.1263,3.126,3.135,3.1329,3.134,3.1367,3.1456,3.146,3.1464,3.1478,3.1485,3.1491,0,0,0,0,0,0,3.1072,3.1108,3.1107,3.116,3.1187,3.122,3.1246,3.1246,3.1277,3.1274,3.1287,3.1295,3.1344,3.136,3.1336,3.1421,3.1401,3.1408,3.1409,3.1415,3.142,3.1415,3.1323,0,0,0,0,0,3.108,3.1114,3.1144,3.1188,3.1201,3.1221,3.1242,3.1248,3.1276,3.1288,3.1309,3.1337,3.1372,3.1394,3.1428,3.1483,3.1491,3.1507,3.1512,3.1516,3.1522,3.1553,3.1561,3.1478,3.1478,3.1478,0,0,3.1097,3.1121,3.1142,3.119,3.1212,3.1247,3.1231,3.1269,3.1295,3.1293,3.1341,3.1358,3.139,3.1443,3.1467,3.1458,3.1546,3.1521,3.1524,3.1527,3.1558,3.1566,3.1573,3.1481,3.148,3.148,0,0,3.1147,3.1168,3.1208,3.123,3.1263,3.1276,3.1286,3.1319,3.133,3.1378,3.1378,3.141,3.1469,3.1492,3.1512,3.1572,3.157,3.1582,3.1609,3.1639,3.1646,3.1652,3.1674,3.1682,3.1587,3.1587,3.1587,0,3.1164,3.1217,3.1228,3.1266,3.1288,3.1288,3.1329,3.135,3.1392,3.1407,3.1397,3.1472,3.1494,3.1552,3.1567,3.1583,3.1594,3.1578,3.1644,3.165,3.1656,3.1677,3.1685,3.1589,3.1589,3.1588,3.1588,0,3.1237,3.1274,3.1302,3.1343,3.1368,3.1407,3.1424,3.1448,3.1453,3.1467,3.1517,3.1543,3.1582,3.1596,3.1601,3.1656,3.165,3.1641,3.1622,3.1665,3.1685,3.1693,3.1591,3.159,3.159,3.1589,0,0,3.1294,3.1341,3.1351,3.1371,3.1408,3.1437,3.1476,3.1515,3.1535,3.1565,3.1599,3.165,3.1643,3.1665,3.1672,3.1699,3.1746,3.1687,3.1688,3.1698,3.1809,3.1815,3.1824,3.1745,3.1746,3.1747,3.1807,0,3.1347,3.1418,3.1429,3.1491,3.1525,3.1527,3.1562,3.1588,3.1603,3.1635,3.1652,3.1688,3.1675,3.1689,3.1716,3.1734,3.1768,3.173,3.1777,3.1778,3.1769,3.1835,3.1841,3.1896,3.1815,3.1816,3.1817,0,3.1419,3.1451,3.1517,3.155,3.1565,3.1596,3.1633,3.1663,3.1694,3.1703,3.1728,3.1733,3.1774,3.1753,3.1811,3.1785,3.1805,3.1817,3.182,3.1824,3.18,3.1842,3.1913,3.1922,3.1829,3.1828,3.1827,0,3.1455,3.1514,3.1561,3.1578,3.1618,3.1639,3.1657,3.1687,3.1709,3.1742,3.1757,3.1793,3.1814,3.1842,3.1856,3.1839,3.1914,3.1894,3.1923,3.1923,3.1939,3.1937,3.2015,3.1951,3.1951,3.1951,3.1951,0,3.1514,3.1554,3.1578,3.1607,3.1652,3.1665,3.171,3.1727,3.1753,3.1786,3.1789,3.182,3.1837,3.187,3.1882,3.1929,3.1937,3.1946,3.1949,3.1946,3.1945,3.1959,3.1956,3.1953,3.1953,3.1952,3.1952,0,3.1562,3.1579,3.163,3.1664,3.1674,3.1706,3.1735,3.1763,3.1778,3.182,3.183,3.1854,3.1894,3.1911,3.1959,3.1967,3.2021,3.2021,3.201,3.2011,3.204,3.2037,3.2129,3.2142,3.207,3.2071,3.2071,0,3.1598,3.1629,3.1667,3.1689,3.1707,3.1743,3.1766,3.1781,3.1805,3.1843,3.1867,3.1907,3.1939,3.2002,3.2024,3.2062,3.2063,3.2092,3.2068,3.2065,3.2064,3.2062,3.2065,3.2097,3.2097,3.2098,3.2098,0,3.1662,3.1669,3.1703,3.174,3.1768,3.1797,3.1827,3.1845,3.1864,3.1891,3.1931,3.1957,3.2007,3.2046,3.2085,3.2104,3.2105,3.2106,3.2115,3.2112,3.2105,3.211,3.2023,3.2104,3.2103,3.2103,3.2103,3.2102,3.1706,3.1733,3.1764,3.1802,3.1825,3.1853,3.1881,3.19,3.1934,3.1976,3.1983,3.2026,3.2057,3.211,3.213,3.2164,3.2157,3.217,3.2173,3.2176,3.2178,3.21,3.2172,3.2171,3.2171,3.2171,3.2171,0,3.177,3.179,3.1824,3.1865,3.1895,3.1893,3.1926,3.1951,3.1989,3.2018,3.205,3.2097,3.2135,3.2161,3.22,3.2223,3.2224,3.2233,3.2231,3.2236,3.2182,3.2171,3.2231,3.2231,3.2231,3.2231,3.2231,3.2231,3.1807,3.1854,3.1865,3.1925,3.1944,3.1987,3.2006,3.2031,3.2054,3.2107,3.2139,3.2155,3.2183,3.2224,3.226,3.2266,3.2281,3.229,3.2296,3.2245,3.2239,3.2233,3.2223,3.2293,3.2293,3.2346,3.2347,3.2347]},{"header":{"parameterUnit":"m.s-1","parameterCategory":1,"la1":30.2991,"la2":30.254,"lo1":-89.0895,"lo2":-89.0444,"dy":0.0017,"dx":0.0017,"nx":28,"ny":28,"refTime":"2023-08-17T03:00:00:Z","depth":0,"parameterNumber":3,"parameterNumberName":"V-component_of_WINDS"},"data":[0,0,0,0,0,0,0,0,0,0,0,0,0,0,0,0,0,0,0,0,0,0,0,0,0,0,0,0,0,0,0,0,0,0,0,0,0,0,0,0,0,0,0,0,0,0,0,0,0,0,0,0,0,0,0,0,0,0,-1.0777,-1.0778,0,-1.0857,-1.0858,-1.0858,-1.0864,-1.0863,-1.0862,-1.0861,-1.0944,-1.0947,-1.095,0,0,0,0,0,0,0,0,0,0,0,0,0,-1.0633,-1.0636,-1.0777,-1.0778,-1.0779,-1.0857,-1.0858,-1.0859,-1.0864,-1.0863,-1.0862,-1.0861,-1.0943,-1.0947,-1.0951,0,0,0,0,0,0,0,0,0,0,0,0,0,-1.0702,-1.0636,-1.0777,-1.0791,-1.0793,-1.0856,-1.0858,-1.0859,-1.0864,-1.0863,-1.0862,-1.086,-1.0942,-1.0947,-1.0951,-1.1006,0,0,-1.0965,-1.0967,0,0,0,0,0,0,0,0,-1.0698,-1.0708,-1.0788,-1.079,-1.0793,-1.0849,-1.0837,-1.0908,-1.0865,-1.0837,-1.0861,-1.086,-1.0914,-1.0921,-1.0938,-1.101,-1.1013,-1.0965,-1.0968,-1.097,-1.0971,0,0,0,0,0,0,0,-1.0694,-1.0704,-1.0809,-1.0789,-1.0792,-1.0794,-1.0803,-1.0851,-1.0882,-1.084,-1.084,-1.0849,-1.0915,-1.0934,-1.094,-1.1015,-1.0965,-1.0969,-1.0972,-1.0974,-1.1136,-1.1138,0,0,0,0,0,0,-1.0686,-1.07,-1.0806,-1.0811,-1.0741,-1.0798,-1.0807,-1.0832,-1.0882,-1.0888,-1.0851,-1.0849,-1.0927,-1.0935,-1.0943,-1.1012,-1.097,-1.0974,-1.0977,-1.1135,-1.1137,-1.1139,0,0,0,0,0,0,-1.0683,-1.0695,-1.0803,-1.0756,-1.077,-1.0802,-1.083,-1.0835,-1.0854,-1.089,-1.0896,-1.0864,-1.0926,-1.0937,-1.0991,-1.1015,-1.0976,-1.0981,-1.1133,-1.1136,-1.1138,-1.1148,0,0,0,0,0,0,-1.0678,-1.0694,-1.0715,-1.0756,-1.0772,-1.0848,-1.0831,-1.0837,-1.0861,-1.0861,-1.0904,-1.091,-1.0926,-1.0984,-1.0995,-1.102,-1.0984,-1.1131,-1.1134,-1.1137,-1.1146,-1.1151,-1.1155,0,0,0,0,0,-1.0673,-1.0714,-1.0716,-1.0728,-1.0798,-1.0849,-1.0859,-1.0875,-1.0863,-1.0885,-1.0908,-1.0909,-1.101,-1.0989,-1.1002,-1.1029,-1.113,-1.1133,-1.1137,-1.1144,-1.115,-1.1155,0,0,0,0,0,0,-1.0675,-1.072,-1.0722,-1.0778,-1.081,-1.085,-1.0878,-1.0881,-1.0918,-1.0915,-1.0935,-1.0945,-1.0998,-1.1019,-1.0995,-1.1085,-1.1069,-1.1075,-1.107,-1.1076,-1.108,-1.1074,-1.0988,0,0,0,0,0,-1.0682,-1.0719,-1.0756,-1.0802,-1.0818,-1.0845,-1.0868,-1.0878,-1.0912,-1.0926,-1.0953,-1.0987,-1.1027,-1.1052,-1.1091,-1.1149,-1.1159,-1.1174,-1.1178,-1.1182,-1.1187,-1.1221,-1.1228,-1.115,-1.115,-1.115,0,0,-1.0696,-1.0726,-1.0748,-1.0803,-1.0829,-1.0868,-1.0856,-1.0898,-1.0927,-1.0933,-1.0985,-1.1006,-1.1045,-1.1102,-1.1128,-1.1121,-1.1211,-1.1187,-1.1189,-1.1193,-1.1225,-1.1233,-1.1239,-1.1153,-1.1152,-1.1152,0,0,-1.0743,-1.0768,-1.081,-1.0836,-1.0875,-1.0893,-1.0903,-1.0944,-1.0958,-1.1011,-1.1016,-1.1052,-1.1119,-1.1147,-1.117,-1.1228,-1.1231,-1.124,-1.1264,-1.1296,-1.1302,-1.1308,-1.1329,-1.1337,-1.1245,-1.1245,-1.1245,0,-1.0756,-1.0814,-1.083,-1.0872,-1.0897,-1.0903,-1.0946,-1.0971,-1.1021,-1.1038,-1.1029,-1.1115,-1.1142,-1.1205,-1.1219,-1.1238,-1.1251,-1.1235,-1.13,-1.1306,-1.1311,-1.1332,-1.134,-1.1246,-1.1246,-1.1246,-1.1246,0,-1.0829,-1.0869,-1.0898,-1.0946,-1.0974,-1.1015,-1.1039,-1.1066,-1.1074,-1.1093,-1.1147,-1.118,-1.1225,-1.1241,-1.1249,-1.1306,-1.1301,-1.1296,-1.1279,-1.1319,-1.1339,-1.1347,-1.1248,-1.1247,-1.1247,-1.1247,0,0,-1.0878,-1.0935,-1.0946,-1.0968,-1.1013,-1.1044,-1.1087,-1.1131,-1.1154,-1.1189,-1.1225,-1.1283,-1.1279,-1.1305,-1.1317,-1.1345,-1.139,-1.1337,-1.1338,-1.1346,-1.1456,-1.146,-1.1469,-1.1392,-1.1394,-1.1395,-1.1453,0,-1.093,-1.1005,-1.1022,-1.1087,-1.1125,-1.1132,-1.117,-1.1202,-1.1221,-1.1257,-1.1278,-1.1319,-1.131,-1.1326,-1.1354,-1.1379,-1.1413,-1.1375,-1.1428,-1.1429,-1.1418,-1.148,-1.1484,-1.1537,-1.1461,-1.1463,-1.1463,0,-1.1001,-1.1037,-1.1106,-1.1146,-1.1163,-1.1196,-1.1238,-1.1272,-1.1308,-1.1321,-1.135,-1.1359,-1.1405,-1.1386,-1.145,-1.1424,-1.1447,-1.1462,-1.1465,-1.1471,-1.1449,-1.1488,-1.1555,-1.1563,-1.1476,-1.1475,-1.1474,0,-1.1031,-1.1097,-1.1147,-1.1165,-1.1213,-1.1237,-1.1258,-1.1294,-1.1319,-1.1357,-1.1374,-1.1416,-1.1439,-1.1472,-1.1493,-1.1477,-1.1556,-1.1539,-1.1568,-1.1568,-1.1585,-1.1583,-1.1657,-1.1598,-1.1598,-1.1598,-1.1598,0,-1.1087,-1.1129,-1.1161,-1.1192,-1.1239,-1.1259,-1.1306,-1.1327,-1.1359,-1.1395,-1.1404,-1.1437,-1.1462,-1.15,-1.1516,-1.1567,-1.1578,-1.1589,-1.1593,-1.1589,-1.1588,-1.1604,-1.1602,-1.16,-1.16,-1.1599,-1.1599,0,-1.1129,-1.1152,-1.1207,-1.1248,-1.1259,-1.1293,-1.1329,-1.1359,-1.1379,-1.1424,-1.1436,-1.1467,-1.1512,-1.1536,-1.1592,-1.1603,-1.166,-1.1662,-1.1648,-1.165,-1.1678,-1.1675,-1.1765,-1.1779,-1.1711,-1.1711,-1.1712,0,-1.1164,-1.1196,-1.1241,-1.1265,-1.1287,-1.1326,-1.1353,-1.1373,-1.1401,-1.1445,-1.1471,-1.1516,-1.1553,-1.1625,-1.1653,-1.1696,-1.1699,-1.1728,-1.1706,-1.1701,-1.1701,-1.1699,-1.1703,-1.1732,-1.1732,-1.1733,-1.1733,0,-1.1224,-1.1233,-1.1271,-1.1312,-1.1343,-1.1377,-1.1411,-1.1431,-1.1457,-1.1487,-1.1533,-1.1562,-1.1619,-1.1664,-1.171,-1.1733,-1.1738,-1.174,-1.1749,-1.1745,-1.1736,-1.1742,-1.1659,-1.1738,-1.1737,-1.1737,-1.1737,-1.1737,-1.1264,-1.1293,-1.1329,-1.1371,-1.1398,-1.143,-1.1461,-1.1485,-1.1523,-1.157,-1.1581,-1.1629,-1.1666,-1.1728,-1.1752,-1.1791,-1.1786,-1.1799,-1.1802,-1.1805,-1.1807,-1.1729,-1.1799,-1.1799,-1.1799,-1.1799,-1.1799,0,-1.1325,-1.1348,-1.1386,-1.1433,-1.1466,-1.1467,-1.1505,-1.1533,-1.1575,-1.1609,-1.1645,-1.1698,-1.1742,-1.1774,-1.1819,-1.1845,-1.1848,-1.1856,-1.1855,-1.186,-1.1809,-1.1797,-1.1852,-1.1852,-1.1852,-1.1852,-1.1852,-1.1852,-1.136,-1.1411,-1.1425,-1.1489,-1.1513,-1.156,-1.1582,-1.1611,-1.1638,-1.1697,-1.1733,-1.1754,-1.1787,-1.1835,-1.1876,-1.1884,-1.1901,-1.1909,-1.1917,-1.1869,-1.1863,-1.1858,-1.1847,-1.1912,-1.1912,-1.1965,-1.1966,-1.1966]}]]